﻿_id,日時,10分間移動積算雨量(mm),1時間移動積算雨量(mm),日雨量(mm),累計雨量(mm)
1,2021-08-09T00:00:00,0,0,30,30
2,2021-08-09T00:01:00,0,0,0,30
3,2021-08-09T00:02:00,0,0,0,30
4,2021-08-09T00:03:00,0,0,0,30
5,2021-08-09T00:04:00,0,0,0,30
6,2021-08-09T00:05:00,0,0,0,30
7,2021-08-09T00:06:00,0,0,0,30
8,2021-08-09T00:07:00,0,0,0,30
9,2021-08-09T00:08:00,0,0,0,30
10,2021-08-09T00:09:00,0,0,0,30
11,2021-08-09T00:10:00,0,0,0,30
12,2021-08-09T00:11:00,0,0,0,30
13,2021-08-09T00:12:00,0,0,0,30
14,2021-08-09T00:13:00,0,0,0,30
15,2021-08-09T00:14:00,0,0,0,30
16,2021-08-09T00:15:00,0,0,0,30
17,2021-08-09T00:16:00,0,0,0,30
18,2021-08-09T00:17:00,0,0,0,30
19,2021-08-09T00:18:00,0,0,0,30
20,2021-08-09T00:19:00,0,0,0,30
21,2021-08-09T00:20:00,0,0,0,30
22,2021-08-09T00:21:00,0,0,0,30
23,2021-08-09T00:22:00,0,0,0,30
24,2021-08-09T00:23:00,0,0,0,30
25,2021-08-09T00:24:00,0,0,0,30
26,2021-08-09T00:25:00,0,0,0,30
27,2021-08-09T00:26:00,0,0,0,30
28,2021-08-09T00:27:00,0,0,0,30
29,2021-08-09T00:28:00,0,0,0,30
30,2021-08-09T00:29:00,0,0,0,30
31,2021-08-09T00:30:00,0,0,0,30
32,2021-08-09T00:31:00,0,0,0,30
33,2021-08-09T00:32:00,0,0,0,30
34,2021-08-09T00:33:00,0,0,0,30
35,2021-08-09T00:34:00,0,0,0,30
36,2021-08-09T00:35:00,0,0,0,30
37,2021-08-09T00:36:00,0,0,0,30
38,2021-08-09T00:37:00,0,0,0,30
39,2021-08-09T00:38:00,0,0,0,30
40,2021-08-09T00:39:00,0,0,0,30
41,2021-08-09T00:40:00,0,0,0,30
42,2021-08-09T00:41:00,0,0,0,30
43,2021-08-09T00:42:00,0,0,0,30
44,2021-08-09T00:43:00,0,0,0,30
45,2021-08-09T00:44:00,0,0,0,30
46,2021-08-09T00:45:00,0,0,0,30
47,2021-08-09T00:46:00,0,0,0,30
48,2021-08-09T00:47:00,0,0,0,30
49,2021-08-09T00:48:00,0,0,0,30
50,2021-08-09T00:49:00,0,0,0,30
51,2021-08-09T00:50:00,0,0,0,30
52,2021-08-09T00:51:00,0,0,0,30
53,2021-08-09T00:52:00,0,0,0,30
54,2021-08-09T00:53:00,0,0,0,30
55,2021-08-09T00:54:00,0,0,0,30
56,2021-08-09T00:55:00,0,0,0,30
57,2021-08-09T00:56:00,0,0,0,30
58,2021-08-09T00:57:00,0,0,0,30
59,2021-08-09T00:58:00,0,0,0,30
60,2021-08-09T00:59:00,0,0,0,30
61,2021-08-09T01:00:00,0,0,0,30
62,2021-08-09T01:01:00,0,0,0,30
63,2021-08-09T01:02:00,0,0,0,30
64,2021-08-09T01:03:00,0,0,0,30
65,2021-08-09T01:04:00,0,0,0,30
66,2021-08-09T01:05:00,0,0,0,30
67,2021-08-09T01:06:00,0,0,0,30
68,2021-08-09T01:07:00,0,0,0,30
69,2021-08-09T01:08:00,0,0,0,30
70,2021-08-09T01:09:00,0,0,0,30
71,2021-08-09T01:10:00,0,0,0,30
72,2021-08-09T01:11:00,0,0,0,30
73,2021-08-09T01:12:00,0,0,0,30
74,2021-08-09T01:13:00,0,0,0,30
75,2021-08-09T01:14:00,0,0,0,30
76,2021-08-09T01:15:00,0,0,0,30
77,2021-08-09T01:16:00,0,0,0,30
78,2021-08-09T01:17:00,0,0,0,30
79,2021-08-09T01:18:00,0,0,0,30
80,2021-08-09T01:19:00,0,0,0,30
81,2021-08-09T01:20:00,0,0,0,30
82,2021-08-09T01:21:00,0,0,0,30
83,2021-08-09T01:22:00,0,0,0,30
84,2021-08-09T01:23:00,0,0,0,30
85,2021-08-09T01:24:00,0,0,0,30
86,2021-08-09T01:25:00,0,0,0,30
87,2021-08-09T01:26:00,0,0,0,30
88,2021-08-09T01:27:00,0,0,0,30
89,2021-08-09T01:28:00,0,0,0,30
90,2021-08-09T01:29:00,0,0,0,30
91,2021-08-09T01:30:00,0.5,0.5,0.5,30.5
92,2021-08-09T01:31:00,0.5,0.5,0.5,30.5
93,2021-08-09T01:32:00,0.5,0.5,0.5,30.5
94,2021-08-09T01:33:00,0.5,0.5,0.5,30.5
95,2021-08-09T01:34:00,1,1,1,31
96,2021-08-09T01:35:00,1,1,1,31
97,2021-08-09T01:36:00,1,1,1,31
98,2021-08-09T01:37:00,1,1,1,31
99,2021-08-09T01:38:00,1.5,1.5,1.5,31.5
100,2021-08-09T01:39:00,1.5,1.5,1.5,31.5
101,2021-08-09T01:40:00,1,1.5,1.5,31.5
102,2021-08-09T01:41:00,1.5,2,2,32
103,2021-08-09T01:42:00,1.5,2,2,32
104,2021-08-09T01:43:00,1.5,2,2,32
105,2021-08-09T01:44:00,1,2,2,32
106,2021-08-09T01:45:00,1,2,2,32
107,2021-08-09T01:46:00,1,2,2,32
108,2021-08-09T01:47:00,1,2,2,32
109,2021-08-09T01:48:00,0.5,2,2,32
110,2021-08-09T01:49:00,0.5,2,2,32
111,2021-08-09T01:50:00,0.5,2,2,32
112,2021-08-09T01:51:00,0,2,2,32
113,2021-08-09T01:52:00,0,2,2,32
114,2021-08-09T01:53:00,0,2,2,32
115,2021-08-09T01:54:00,0,2,2,32
116,2021-08-09T01:55:00,0,2,2,32
117,2021-08-09T01:56:00,0,2,2,32
118,2021-08-09T01:57:00,0,2,2,32
119,2021-08-09T01:58:00,0,2,2,32
120,2021-08-09T01:59:00,0,2,2,32
121,2021-08-09T02:00:00,0,2,2,32
122,2021-08-09T02:01:00,0,2,2,32
123,2021-08-09T02:02:00,0,2,2,32
124,2021-08-09T02:03:00,0,2,2,32
125,2021-08-09T02:04:00,0,2,2,32
126,2021-08-09T02:05:00,0,2,2,32
127,2021-08-09T02:06:00,0,2,2,32
128,2021-08-09T02:07:00,0,2,2,32
129,2021-08-09T02:08:00,0,2,2,32
130,2021-08-09T02:09:00,0,2,2,32
131,2021-08-09T02:10:00,0,2,2,32
132,2021-08-09T02:11:00,0,2,2,32
133,2021-08-09T02:12:00,0,2,2,32
134,2021-08-09T02:13:00,0,2,2,32
135,2021-08-09T02:14:00,0,2,2,32
136,2021-08-09T02:15:00,0,2,2,32
137,2021-08-09T02:16:00,0,2,2,32
138,2021-08-09T02:17:00,0,2,2,32
139,2021-08-09T02:18:00,0,2,2,32
140,2021-08-09T02:19:00,0,2,2,32
141,2021-08-09T02:20:00,0,2,2,32
142,2021-08-09T02:21:00,0,2,2,32
143,2021-08-09T02:22:00,0,2,2,32
144,2021-08-09T02:23:00,0,2,2,32
145,2021-08-09T02:24:00,0,2,2,32
146,2021-08-09T02:25:00,0,2,2,32
147,2021-08-09T02:26:00,0,2,2,32
148,2021-08-09T02:27:00,0,2,2,32
149,2021-08-09T02:28:00,0,2,2,32
150,2021-08-09T02:29:00,0,2,2,32
151,2021-08-09T02:30:00,0,1.5,2,32
152,2021-08-09T02:31:00,0,1.5,2,32
153,2021-08-09T02:32:00,0,1.5,2,32
154,2021-08-09T02:33:00,0,1.5,2,32
155,2021-08-09T02:34:00,0,1,2,32
156,2021-08-09T02:35:00,0.5,1.5,2.5,32.5
157,2021-08-09T02:36:00,0.5,1.5,2.5,32.5
158,2021-08-09T02:37:00,1,2,3,33
159,2021-08-09T02:38:00,1,1.5,3,33
160,2021-08-09T02:39:00,2,2.5,4,34
161,2021-08-09T02:40:00,2.5,3,4.5,34.5
162,2021-08-09T02:41:00,3,3,5,35
163,2021-08-09T02:42:00,3.5,3.5,5.5,35.5
164,2021-08-09T02:43:00,3.5,3.5,5.5,35.5
165,2021-08-09T02:44:00,4,4,6,36
166,2021-08-09T02:45:00,3.5,4,6,36
167,2021-08-09T02:46:00,3.5,4,6,36
168,2021-08-09T02:47:00,3,4,6,36
169,2021-08-09T02:48:00,3.5,4.5,6.5,36.5
170,2021-08-09T02:49:00,2.5,4.5,6.5,36.5
171,2021-08-09T02:50:00,2.5,5,7,37
172,2021-08-09T02:51:00,2,5,7,37
173,2021-08-09T02:52:00,2,5.5,7.5,37.5
174,2021-08-09T02:53:00,2.5,6,8,38
175,2021-08-09T02:54:00,2,6,8,38
176,2021-08-09T02:55:00,2,6,8,38
177,2021-08-09T02:56:00,2,6,8,38
178,2021-08-09T02:57:00,2,6,8,38
179,2021-08-09T02:58:00,2,6.5,8.5,38.5
180,2021-08-09T02:59:00,2,6.5,8.5,38.5
181,2021-08-09T03:00:00,1.5,6.5,8.5,38.5
182,2021-08-09T03:01:00,1.5,6.5,8.5,38.5
183,2021-08-09T03:02:00,1,6.5,8.5,38.5
184,2021-08-09T03:03:00,1,7,9,39
185,2021-08-09T03:04:00,1,7,9,39
186,2021-08-09T03:05:00,1,7,9,39
187,2021-08-09T03:06:00,1,7,9,39
188,2021-08-09T03:07:00,1.5,7.5,9.5,39.5
189,2021-08-09T03:08:00,1,7.5,9.5,39.5
190,2021-08-09T03:09:00,1,7.5,9.5,39.5
191,2021-08-09T03:10:00,1,7.5,9.5,39.5
192,2021-08-09T03:11:00,1,7.5,9.5,39.5
193,2021-08-09T03:12:00,1,7.5,9.5,39.5
194,2021-08-09T03:13:00,1,8,10,40
195,2021-08-09T03:14:00,1,8,10,40
196,2021-08-09T03:15:00,1,8,10,40
197,2021-08-09T03:16:00,1.5,8.5,10.5,40.5
198,2021-08-09T03:17:00,1.5,9,11,41
199,2021-08-09T03:18:00,2,9.5,11.5,41.5
200,2021-08-09T03:19:00,2.5,10,12,42
201,2021-08-09T03:20:00,2.5,10,12,42
202,2021-08-09T03:21:00,3,10.5,12.5,42.5
203,2021-08-09T03:22:00,3,10.5,12.5,42.5
204,2021-08-09T03:23:00,2.5,10.5,12.5,42.5
205,2021-08-09T03:24:00,2.5,10.5,12.5,42.5
206,2021-08-09T03:25:00,2.5,10.5,12.5,42.5
207,2021-08-09T03:26:00,2,10.5,12.5,42.5
208,2021-08-09T03:27:00,1.5,10.5,12.5,42.5
209,2021-08-09T03:28:00,1,10.5,12.5,42.5
210,2021-08-09T03:29:00,1,11,13,43
211,2021-08-09T03:30:00,1,11,13,43
212,2021-08-09T03:31:00,0.5,11,13,43
213,2021-08-09T03:32:00,1,11.5,13.5,43.5
214,2021-08-09T03:33:00,1,11.5,13.5,43.5
215,2021-08-09T03:34:00,1.5,12,14,44
216,2021-08-09T03:35:00,2,12,14.5,44.5
217,2021-08-09T03:36:00,2,12,14.5,44.5
218,2021-08-09T03:37:00,2,11.5,14.5,44.5
219,2021-08-09T03:38:00,2.5,12,15,45
220,2021-08-09T03:39:00,2,11,15,45
221,2021-08-09T03:40:00,2,10.5,15,45
222,2021-08-09T03:41:00,2.5,10.5,15.5,45.5
223,2021-08-09T03:42:00,2.5,10.5,16,46
224,2021-08-09T03:43:00,2.5,10.5,16,46
225,2021-08-09T03:44:00,2.5,10.5,16.5,46.5
226,2021-08-09T03:45:00,2.5,11,17,47
227,2021-08-09T03:46:00,2.5,11,17,47
228,2021-08-09T03:47:00,2.5,11,17,47
229,2021-08-09T03:48:00,2,10.5,17,47
230,2021-08-09T03:49:00,2,10.5,17,47
231,2021-08-09T03:50:00,2,10,17,47
232,2021-08-09T03:51:00,1.5,10,17,47
233,2021-08-09T03:52:00,1,9.5,17,47
234,2021-08-09T03:53:00,1,9,17,47
235,2021-08-09T03:54:00,1,9.5,17.5,47.5
236,2021-08-09T03:55:00,0.5,9.5,17.5,47.5
237,2021-08-09T03:56:00,0.5,9.5,17.5,47.5
238,2021-08-09T03:57:00,1,10,18,48
239,2021-08-09T03:58:00,1,9.5,18,48
240,2021-08-09T03:59:00,1.5,10,18.5,48.5
241,2021-08-09T04:00:00,1.5,10,18.5,48.5
242,2021-08-09T04:01:00,1.5,10,18.5,48.5
243,2021-08-09T04:02:00,2,10.5,19,49
244,2021-08-09T04:03:00,2,10,19,49
245,2021-08-09T04:04:00,2,10.5,19.5,49.5
246,2021-08-09T04:05:00,2.5,11,20,50
247,2021-08-09T04:06:00,2.5,11,20,50
248,2021-08-09T04:07:00,2,10.5,20,50
249,2021-08-09T04:08:00,2,10.5,20,50
250,2021-08-09T04:09:00,1.5,10.5,20,50
251,2021-08-09T04:10:00,1.5,10.5,20,50
252,2021-08-09T04:11:00,1.5,10.5,20,50
253,2021-08-09T04:12:00,1,10.5,20,50
254,2021-08-09T04:13:00,1.5,10.5,20.5,50.5
255,2021-08-09T04:14:00,1,10.5,20.5,50.5
256,2021-08-09T04:15:00,0.5,10.5,20.5,50.5
257,2021-08-09T04:16:00,0.5,10,20.5,50.5
258,2021-08-09T04:17:00,0.5,9.5,20.5,50.5
259,2021-08-09T04:18:00,0.5,9,20.5,50.5
260,2021-08-09T04:19:00,0.5,8.5,20.5,50.5
261,2021-08-09T04:20:00,0.5,8.5,20.5,50.5
262,2021-08-09T04:21:00,0.5,8,20.5,50.5
263,2021-08-09T04:22:00,0.5,8,20.5,50.5
264,2021-08-09T04:23:00,0,8,20.5,50.5
265,2021-08-09T04:24:00,0,8,20.5,50.5
266,2021-08-09T04:25:00,0,8,20.5,50.5
267,2021-08-09T04:26:00,0,8,20.5,50.5
268,2021-08-09T04:27:00,0,8,20.5,50.5
269,2021-08-09T04:28:00,0,8,20.5,50.5
270,2021-08-09T04:29:00,0,7.5,20.5,50.5
271,2021-08-09T04:30:00,0,7.5,20.5,50.5
272,2021-08-09T04:31:00,0,7.5,20.5,50.5
273,2021-08-09T04:32:00,0,7,20.5,50.5
274,2021-08-09T04:33:00,0.5,7.5,21,51
275,2021-08-09T04:34:00,0.5,7,21,51
276,2021-08-09T04:35:00,0.5,6.5,21,51
277,2021-08-09T04:36:00,0.5,6.5,21,51
278,2021-08-09T04:37:00,0.5,6.5,21,51
279,2021-08-09T04:38:00,0.5,6,21,51
280,2021-08-09T04:39:00,0.5,6,21,51
281,2021-08-09T04:40:00,1,6.5,21.5,51.5
282,2021-08-09T04:41:00,1.5,6.5,22,52
283,2021-08-09T04:42:00,1.5,6,22,52
284,2021-08-09T04:43:00,1.5,6.5,22.5,52.5
285,2021-08-09T04:44:00,1.5,6,22.5,52.5
286,2021-08-09T04:45:00,1.5,5.5,22.5,52.5
287,2021-08-09T04:46:00,1.5,5.5,22.5,52.5
288,2021-08-09T04:47:00,2,6,23,53
289,2021-08-09T04:48:00,2,6,23,53
290,2021-08-09T04:49:00,2,6,23,53
291,2021-08-09T04:50:00,1.5,6,23,53
292,2021-08-09T04:51:00,1,6,23,53
293,2021-08-09T04:52:00,1.5,6.5,23.5,53.5
294,2021-08-09T04:53:00,1,6.5,23.5,53.5
295,2021-08-09T04:54:00,1,6,23.5,53.5
296,2021-08-09T04:55:00,1,6,23.5,53.5
297,2021-08-09T04:56:00,1,6,23.5,53.5
298,2021-08-09T04:57:00,0.5,5.5,23.5,53.5
299,2021-08-09T04:58:00,0.5,5.5,23.5,53.5
300,2021-08-09T04:59:00,1,5.5,24,54
301,2021-08-09T05:00:00,1,5.5,24,54
302,2021-08-09T05:01:00,1,5.5,24,54
303,2021-08-09T05:02:00,0.5,5,24,54
304,2021-08-09T05:03:00,0.5,5,24,54
305,2021-08-09T05:04:00,0.5,4.5,24,54
306,2021-08-09T05:05:00,1,4.5,24.5,54.5
307,2021-08-09T05:06:00,1,4.5,24.5,54.5
308,2021-08-09T05:07:00,1,4.5,24.5,54.5
309,2021-08-09T05:08:00,1,4.5,24.5,54.5
310,2021-08-09T05:09:00,0.5,4.5,24.5,54.5
311,2021-08-09T05:10:00,1,5,25,55
312,2021-08-09T05:11:00,1,5,25,55
313,2021-08-09T05:12:00,1,5,25,55
314,2021-08-09T05:13:00,1,4.5,25,55
315,2021-08-09T05:14:00,1,4.5,25,55
316,2021-08-09T05:15:00,0.5,4.5,25,55
317,2021-08-09T05:16:00,1,5,25.5,55.5
318,2021-08-09T05:17:00,1,5,25.5,55.5
319,2021-08-09T05:18:00,1,5,25.5,55.5
320,2021-08-09T05:19:00,1,5,25.5,55.5
321,2021-08-09T05:20:00,0.5,5,25.5,55.5
322,2021-08-09T05:21:00,0.5,5,25.5,55.5
323,2021-08-09T05:22:00,0.5,5,25.5,55.5
324,2021-08-09T05:23:00,0.5,5,25.5,55.5
325,2021-08-09T05:24:00,0.5,5,25.5,55.5
326,2021-08-09T05:25:00,0.5,5,25.5,55.5
327,2021-08-09T05:26:00,0,5,25.5,55.5
328,2021-08-09T05:27:00,0,5,25.5,55.5
329,2021-08-09T05:28:00,0,5,25.5,55.5
330,2021-08-09T05:29:00,0,5,25.5,55.5
331,2021-08-09T05:30:00,0,5,25.5,55.5
332,2021-08-09T05:31:00,0,5,25.5,55.5
333,2021-08-09T05:32:00,0,5,25.5,55.5
334,2021-08-09T05:33:00,0,4.5,25.5,55.5
335,2021-08-09T05:34:00,0,4.5,25.5,55.5
336,2021-08-09T05:35:00,0,4.5,25.5,55.5
337,2021-08-09T05:36:00,0,4.5,25.5,55.5
338,2021-08-09T05:37:00,0,4.5,25.5,55.5
339,2021-08-09T05:38:00,0,4.5,25.5,55.5
340,2021-08-09T05:39:00,0,4.5,25.5,55.5
341,2021-08-09T05:40:00,0,4,25.5,55.5
342,2021-08-09T05:41:00,0,3.5,25.5,55.5
343,2021-08-09T05:42:00,0.5,4,26,56
344,2021-08-09T05:43:00,0.5,3.5,26,56
345,2021-08-09T05:44:00,0.5,3.5,26,56
346,2021-08-09T05:45:00,0.5,3.5,26,56
347,2021-08-09T05:46:00,0.5,3.5,26,56
348,2021-08-09T05:47:00,0.5,3,26,56
349,2021-08-09T05:48:00,0.5,3,26,56
350,2021-08-09T05:49:00,0.5,3,26,56
351,2021-08-09T05:50:00,0.5,3,26,56
352,2021-08-09T05:51:00,0.5,3,26,56
353,2021-08-09T05:52:00,0,2.5,26,56
354,2021-08-09T05:53:00,0,2.5,26,56
355,2021-08-09T05:54:00,0,2.5,26,56
356,2021-08-09T05:55:00,0,2.5,26,56
357,2021-08-09T05:56:00,0,2.5,26,56
358,2021-08-09T05:57:00,0,2.5,26,56
359,2021-08-09T05:58:00,0,2.5,26,56
360,2021-08-09T05:59:00,0,2,26,56
361,2021-08-09T06:00:00,0,2,26,56
362,2021-08-09T06:01:00,0,2,26,56
363,2021-08-09T06:02:00,0,2,26,56
364,2021-08-09T06:03:00,0,2,26,56
365,2021-08-09T06:04:00,0,2,26,56
366,2021-08-09T06:05:00,0.5,2,26.5,56.5
367,2021-08-09T06:06:00,0.5,2,26.5,56.5
368,2021-08-09T06:07:00,0.5,2,26.5,56.5
369,2021-08-09T06:08:00,0.5,2,26.5,56.5
370,2021-08-09T06:09:00,0.5,2,26.5,56.5
371,2021-08-09T06:10:00,0.5,1.5,26.5,56.5
372,2021-08-09T06:11:00,0.5,1.5,26.5,56.5
373,2021-08-09T06:12:00,0.5,1.5,26.5,56.5
374,2021-08-09T06:13:00,0.5,1.5,26.5,56.5
375,2021-08-09T06:14:00,0.5,1.5,26.5,56.5
376,2021-08-09T06:15:00,0,1.5,26.5,56.5
377,2021-08-09T06:16:00,0,1,26.5,56.5
378,2021-08-09T06:17:00,0,1,26.5,56.5
379,2021-08-09T06:18:00,0,1,26.5,56.5
380,2021-08-09T06:19:00,0,1,26.5,56.5
381,2021-08-09T06:20:00,0,1,26.5,56.5
382,2021-08-09T06:21:00,0,1,26.5,56.5
383,2021-08-09T06:22:00,0,1,26.5,56.5
384,2021-08-09T06:23:00,0,1,26.5,56.5
385,2021-08-09T06:24:00,0,1,26.5,56.5
386,2021-08-09T06:25:00,0,1,26.5,56.5
387,2021-08-09T06:26:00,0.5,1.5,27,57
388,2021-08-09T06:27:00,0.5,1.5,27,57
389,2021-08-09T06:28:00,0.5,1.5,27,57
390,2021-08-09T06:29:00,0.5,1.5,27,57
391,2021-08-09T06:30:00,0.5,1.5,27,57
392,2021-08-09T06:31:00,0.5,1.5,27,57
393,2021-08-09T06:32:00,0.5,1.5,27,57
394,2021-08-09T06:33:00,0.5,1.5,27,57
395,2021-08-09T06:34:00,0.5,1.5,27,57
396,2021-08-09T06:35:00,0.5,1.5,27,57
397,2021-08-09T06:36:00,0,1.5,27,57
398,2021-08-09T06:37:00,0.5,2,27.5,57.5
399,2021-08-09T06:38:00,0.5,2,27.5,57.5
400,2021-08-09T06:39:00,0.5,2,27.5,57.5
401,2021-08-09T06:40:00,0.5,2,27.5,57.5
402,2021-08-09T06:41:00,0.5,2,27.5,57.5
403,2021-08-09T06:42:00,0.5,1.5,27.5,57.5
404,2021-08-09T06:43:00,0.5,1.5,27.5,57.5
405,2021-08-09T06:44:00,0.5,1.5,27.5,57.5
406,2021-08-09T06:45:00,0.5,1.5,27.5,57.5
407,2021-08-09T06:46:00,0.5,1.5,27.5,57.5
408,2021-08-09T06:47:00,0,1.5,27.5,57.5
409,2021-08-09T06:48:00,0.5,2,28,58
410,2021-08-09T06:49:00,0.5,2,28,58
411,2021-08-09T06:50:00,0.5,2,28,58
412,2021-08-09T06:51:00,0.5,2,28,58
413,2021-08-09T06:52:00,0.5,2,28,58
414,2021-08-09T06:53:00,0.5,2,28,58
415,2021-08-09T06:54:00,0.5,2,28,58
416,2021-08-09T06:55:00,0.5,2,28,58
417,2021-08-09T06:56:00,0.5,2,28,58
418,2021-08-09T06:57:00,0.5,2,28,58
419,2021-08-09T06:58:00,0,2,28,58
420,2021-08-09T06:59:00,0,2,28,58
421,2021-08-09T07:00:00,0,2,28,58
422,2021-08-09T07:01:00,0,2,28,58
423,2021-08-09T07:02:00,0,2,28,58
424,2021-08-09T07:03:00,0,2,28,58
425,2021-08-09T07:04:00,0,2,28,58
426,2021-08-09T07:05:00,0,1.5,28,58
427,2021-08-09T07:06:00,0,1.5,28,58
428,2021-08-09T07:07:00,0,1.5,28,58
429,2021-08-09T07:08:00,0,1.5,28,58
430,2021-08-09T07:09:00,0,1.5,28,58
431,2021-08-09T07:10:00,0,1.5,28,58
432,2021-08-09T07:11:00,0,1.5,28,58
433,2021-08-09T07:12:00,0,1.5,28,58
434,2021-08-09T07:13:00,0,1.5,28,58
435,2021-08-09T07:14:00,0,1.5,28,58
436,2021-08-09T07:15:00,0,1.5,28,58
437,2021-08-09T07:16:00,0,1.5,28,58
438,2021-08-09T07:17:00,0,1.5,28,58
439,2021-08-09T07:18:00,0,1.5,28,58
440,2021-08-09T07:19:00,0,1.5,28,58
441,2021-08-09T07:20:00,0.5,2,28.5,58.5
442,2021-08-09T07:21:00,0.5,2,28.5,58.5
443,2021-08-09T07:22:00,0.5,2,28.5,58.5
444,2021-08-09T07:23:00,1,2.5,29,59
445,2021-08-09T07:24:00,1,2.5,29,59
446,2021-08-09T07:25:00,1,2.5,29,59
447,2021-08-09T07:26:00,1,2,29,59
448,2021-08-09T07:27:00,1,2,29,59
449,2021-08-09T07:28:00,1,2,29,59
450,2021-08-09T07:29:00,1,2,29,59
451,2021-08-09T07:30:00,0.5,2,29,59
452,2021-08-09T07:31:00,0.5,2,29,59
453,2021-08-09T07:32:00,1,2.5,29.5,59.5
454,2021-08-09T07:33:00,0.5,2.5,29.5,59.5
455,2021-08-09T07:34:00,0.5,2.5,29.5,59.5
456,2021-08-09T07:35:00,0.5,2.5,29.5,59.5
457,2021-08-09T07:36:00,0.5,2.5,29.5,59.5
458,2021-08-09T07:37:00,0.5,2,29.5,59.5
459,2021-08-09T07:38:00,0.5,2,29.5,59.5
460,2021-08-09T07:39:00,0.5,2,29.5,59.5
461,2021-08-09T07:40:00,0.5,2,29.5,59.5
462,2021-08-09T07:41:00,0.5,2,29.5,59.5
463,2021-08-09T07:42:00,0,2,29.5,59.5
464,2021-08-09T07:43:00,0,2,29.5,59.5
465,2021-08-09T07:44:00,0,2,29.5,59.5
466,2021-08-09T07:45:00,0,2,29.5,59.5
467,2021-08-09T07:46:00,0,2,29.5,59.5
468,2021-08-09T07:47:00,0,2,29.5,59.5
469,2021-08-09T07:48:00,0,1.5,29.5,59.5
470,2021-08-09T07:49:00,0,1.5,29.5,59.5
471,2021-08-09T07:50:00,0,1.5,29.5,59.5
472,2021-08-09T07:51:00,0.5,2,30,60
473,2021-08-09T07:52:00,0.5,2,30,60
474,2021-08-09T07:53:00,0.5,2,30,60
475,2021-08-09T07:54:00,0.5,2,30,60
476,2021-08-09T07:55:00,0.5,2,30,60
477,2021-08-09T07:56:00,0.5,2,30,60
478,2021-08-09T07:57:00,0.5,2,30,60
479,2021-08-09T07:58:00,0.5,2,30,60
480,2021-08-09T07:59:00,0.5,2,30,60
481,2021-08-09T08:00:00,0.5,2,30,60
482,2021-08-09T08:01:00,0,2,30,60
483,2021-08-09T08:02:00,0,2,30,60
484,2021-08-09T08:03:00,0.5,2.5,30.5,60.5
485,2021-08-09T08:04:00,0.5,2.5,30.5,60.5
486,2021-08-09T08:05:00,0.5,2.5,30.5,60.5
487,2021-08-09T08:06:00,0.5,2.5,30.5,60.5
488,2021-08-09T08:07:00,0.5,2.5,30.5,60.5
489,2021-08-09T08:08:00,0.5,2.5,30.5,60.5
490,2021-08-09T08:09:00,0.5,2.5,30.5,60.5
491,2021-08-09T08:10:00,0.5,2.5,30.5,60.5
492,2021-08-09T08:11:00,0.5,2.5,30.5,60.5
493,2021-08-09T08:12:00,0.5,2.5,30.5,60.5
494,2021-08-09T08:13:00,0,2.5,30.5,60.5
495,2021-08-09T08:14:00,0,2.5,30.5,60.5
496,2021-08-09T08:15:00,0,2.5,30.5,60.5
497,2021-08-09T08:16:00,0,2.5,30.5,60.5
498,2021-08-09T08:17:00,0.5,3,31,61
499,2021-08-09T08:18:00,0.5,3,31,61
500,2021-08-09T08:19:00,0.5,3,31,61
501,2021-08-09T08:20:00,0.5,2.5,31,61
502,2021-08-09T08:21:00,0.5,2.5,31,61
503,2021-08-09T08:22:00,0.5,2.5,31,61
504,2021-08-09T08:23:00,0.5,2,31,61
505,2021-08-09T08:24:00,0.5,2,31,61
506,2021-08-09T08:25:00,0.5,2,31,61
507,2021-08-09T08:26:00,0.5,2,31,61
508,2021-08-09T08:27:00,0,2,31,61
509,2021-08-09T08:28:00,0,2,31,61
510,2021-08-09T08:29:00,0,2,31,61
511,2021-08-09T08:30:00,0,2,31,61
512,2021-08-09T08:31:00,0,2,31,61
513,2021-08-09T08:32:00,0,1.5,31,61
514,2021-08-09T08:33:00,0,1.5,31,61
515,2021-08-09T08:34:00,0,1.5,31,61
516,2021-08-09T08:35:00,0,1.5,31,61
517,2021-08-09T08:36:00,0,1.5,31,61
518,2021-08-09T08:37:00,0,1.5,31,61
519,2021-08-09T08:38:00,0,1.5,31,61
520,2021-08-09T08:39:00,0,1.5,31,61
521,2021-08-09T08:40:00,0,1.5,31,61
522,2021-08-09T08:41:00,0,1.5,31,61
523,2021-08-09T08:42:00,0,1.5,31,61
524,2021-08-09T08:43:00,0,1.5,31,61
525,2021-08-09T08:44:00,0,1.5,31,61
526,2021-08-09T08:45:00,0,1.5,31,61
527,2021-08-09T08:46:00,0,1.5,31,61
528,2021-08-09T08:47:00,0,1.5,31,61
529,2021-08-09T08:48:00,0,1.5,31,61
530,2021-08-09T08:49:00,0,1.5,31,61
531,2021-08-09T08:50:00,0,1.5,31,61
532,2021-08-09T08:51:00,0,1,31,61
533,2021-08-09T08:52:00,0,1,31,61
534,2021-08-09T08:53:00,0,1,31,61
535,2021-08-09T08:54:00,0,1,31,61
536,2021-08-09T08:55:00,0,1,31,61
537,2021-08-09T08:56:00,0,1,31,61
538,2021-08-09T08:57:00,0,1,31,61
539,2021-08-09T08:58:00,0,1,31,61
540,2021-08-09T08:59:00,0,1,31,61
541,2021-08-09T09:00:00,0,1,31,61
542,2021-08-09T09:01:00,0,1,31,61
543,2021-08-09T09:02:00,0,1,31,61
544,2021-08-09T09:03:00,0,0.5,31,61
545,2021-08-09T09:04:00,0,0.5,31,61
546,2021-08-09T09:05:00,0,0.5,31,61
547,2021-08-09T09:06:00,0,0.5,31,61
548,2021-08-09T09:07:00,0,0.5,31,61
549,2021-08-09T09:08:00,0,0.5,31,61
550,2021-08-09T09:09:00,0,0.5,31,61
551,2021-08-09T09:10:00,0,0.5,31,61
552,2021-08-09T09:11:00,0,0.5,31,61
553,2021-08-09T09:12:00,0,0.5,31,61
554,2021-08-09T09:13:00,0,0.5,31,61
555,2021-08-09T09:14:00,0,0.5,31,61
556,2021-08-09T09:15:00,0,0.5,31,61
557,2021-08-09T09:16:00,0,0.5,31,61
558,2021-08-09T09:17:00,0.5,0.5,31.5,61.5
559,2021-08-09T09:18:00,0.5,0.5,31.5,61.5
560,2021-08-09T09:19:00,0.5,0.5,31.5,61.5
561,2021-08-09T09:20:00,0.5,0.5,31.5,61.5
562,2021-08-09T09:21:00,0.5,0.5,31.5,61.5
563,2021-08-09T09:22:00,0.5,0.5,31.5,61.5
564,2021-08-09T09:23:00,0.5,0.5,31.5,61.5
565,2021-08-09T09:24:00,0.5,0.5,31.5,61.5
566,2021-08-09T09:25:00,0.5,0.5,31.5,61.5
567,2021-08-09T09:26:00,0.5,0.5,31.5,61.5
568,2021-08-09T09:27:00,0,0.5,31.5,61.5
569,2021-08-09T09:28:00,0,0.5,31.5,61.5
570,2021-08-09T09:29:00,0,0.5,31.5,61.5
571,2021-08-09T09:30:00,0,0.5,31.5,61.5
572,2021-08-09T09:31:00,0,0.5,31.5,61.5
573,2021-08-09T09:32:00,0.5,1,32,62
574,2021-08-09T09:33:00,0.5,1,32,62
575,2021-08-09T09:34:00,0.5,1,32,62
576,2021-08-09T09:35:00,0.5,1,32,62
577,2021-08-09T09:36:00,0.5,1,32,62
578,2021-08-09T09:37:00,0.5,1,32,62
579,2021-08-09T09:38:00,0.5,1,32,62
580,2021-08-09T09:39:00,0.5,1,32,62
581,2021-08-09T09:40:00,0.5,1,32,62
582,2021-08-09T09:41:00,0.5,1,32,62
583,2021-08-09T09:42:00,0,1,32,62
584,2021-08-09T09:43:00,0,1,32,62
585,2021-08-09T09:44:00,0,1,32,62
586,2021-08-09T09:45:00,0,1,32,62
587,2021-08-09T09:46:00,0,1,32,62
588,2021-08-09T09:47:00,0.5,1.5,32.5,62.5
589,2021-08-09T09:48:00,0.5,1.5,32.5,62.5
590,2021-08-09T09:49:00,0.5,1.5,32.5,62.5
591,2021-08-09T09:50:00,0.5,1.5,32.5,62.5
592,2021-08-09T09:51:00,0.5,1.5,32.5,62.5
593,2021-08-09T09:52:00,0.5,1.5,32.5,62.5
594,2021-08-09T09:53:00,0.5,1.5,32.5,62.5
595,2021-08-09T09:54:00,0.5,1.5,32.5,62.5
596,2021-08-09T09:55:00,0.5,1.5,32.5,62.5
597,2021-08-09T09:56:00,0.5,1.5,32.5,62.5
598,2021-08-09T09:57:00,0,1.5,32.5,62.5
599,2021-08-09T09:58:00,0,1.5,32.5,62.5
600,2021-08-09T09:59:00,0,1.5,32.5,62.5
601,2021-08-09T10:00:00,0.5,2,33,63
602,2021-08-09T10:01:00,0.5,2,33,63
603,2021-08-09T10:02:00,0.5,2,33,63
604,2021-08-09T10:03:00,0.5,2,33,63
605,2021-08-09T10:04:00,0.5,2,33,63
606,2021-08-09T10:05:00,0.5,2,33,63
607,2021-08-09T10:06:00,1,2.5,33.5,63.5
608,2021-08-09T10:07:00,1,2.5,33.5,63.5
609,2021-08-09T10:08:00,1,2.5,33.5,63.5
610,2021-08-09T10:09:00,1,2.5,33.5,63.5
611,2021-08-09T10:10:00,0.5,2.5,33.5,63.5
612,2021-08-09T10:11:00,1,3,34,64
613,2021-08-09T10:12:00,1,3,34,64
614,2021-08-09T10:13:00,1.5,3.5,34.5,64.5
615,2021-08-09T10:14:00,1.5,3.5,34.5,64.5
616,2021-08-09T10:15:00,1.5,3.5,34.5,64.5
617,2021-08-09T10:16:00,1,3.5,34.5,64.5
618,2021-08-09T10:17:00,1,3,34.5,64.5
619,2021-08-09T10:18:00,1,3,34.5,64.5
620,2021-08-09T10:19:00,1,3,34.5,64.5
621,2021-08-09T10:20:00,1.5,3.5,35,65
622,2021-08-09T10:21:00,1,3.5,35,65
623,2021-08-09T10:22:00,1,3.5,35,65
624,2021-08-09T10:23:00,0.5,3.5,35,65
625,2021-08-09T10:24:00,0.5,3.5,35,65
626,2021-08-09T10:25:00,0.5,3.5,35,65
627,2021-08-09T10:26:00,1,4,35.5,65.5
628,2021-08-09T10:27:00,1,4,35.5,65.5
629,2021-08-09T10:28:00,1,4,35.5,65.5
630,2021-08-09T10:29:00,1,4,35.5,65.5
631,2021-08-09T10:30:00,0.5,4,35.5,65.5
632,2021-08-09T10:31:00,0.5,4,35.5,65.5
633,2021-08-09T10:32:00,0.5,3.5,35.5,65.5
634,2021-08-09T10:33:00,0.5,3.5,35.5,65.5
635,2021-08-09T10:34:00,0.5,3.5,35.5,65.5
636,2021-08-09T10:35:00,0.5,3.5,35.5,65.5
637,2021-08-09T10:36:00,0,3.5,35.5,65.5
638,2021-08-09T10:37:00,0,3.5,35.5,65.5
639,2021-08-09T10:38:00,0,3.5,35.5,65.5
640,2021-08-09T10:39:00,0,3.5,35.5,65.5
641,2021-08-09T10:40:00,0,3.5,35.5,65.5
642,2021-08-09T10:41:00,0,3.5,35.5,65.5
643,2021-08-09T10:42:00,0,3.5,35.5,65.5
644,2021-08-09T10:43:00,0,3.5,35.5,65.5
645,2021-08-09T10:44:00,0,3.5,35.5,65.5
646,2021-08-09T10:45:00,0.5,4,36,66
647,2021-08-09T10:46:00,0.5,4,36,66
648,2021-08-09T10:47:00,0.5,3.5,36,66
649,2021-08-09T10:48:00,0.5,3.5,36,66
650,2021-08-09T10:49:00,0.5,3.5,36,66
651,2021-08-09T10:50:00,0.5,3.5,36,66
652,2021-08-09T10:51:00,0.5,3.5,36,66